Location: Freistadt
(48.5112°N, 14.5013°E)
Time: 21:50:49
(UTC+02:00)

O/OREOS (USA 219) - Pass Details

Date: 03 April 2023
Orbit: 621 x 646 km, 72.0° (Epoch: 22 May)

Event Time Altitude Azimuth Distance (km) Brightness Sun altitude
Exits shadow 04:57:23 11° 185° (S) 1,973 ? -16.4°
Maximum altitude 05:01:39 51° 110° (ESE) 808 ? -15.8°
Drops below altitude 10° 05:06:04 10° 35° (NE) 2,031 ? -15.1°
Sets 05:08:23 0° 31° (NNE) 2,940 ? -14.8°
